Regional Weather Roundup
Issued by NWS

Home | Current Version | Previous Version | Text Only | Print | Product List | Glossary On
Versions: 1 2 3 4 5 6 7 8 9 10 11 12 13 14 15 16 17 18 19 20 21 22 23 24 25 26 27 28 29 30 31 32 33 34 35 36 37 38 39 40 41 42 43 44 45 46 47 48 49 50
931
ASUS43 KDTX 280001
RWRMI
MICHIGAN HOURLY REGIONAL WEATHER ROUNDUP
NATIONAL WEATHER SERVICE DETROIT/PONTIAC MI
800 PM EDT SAT AUG 27 2016

NOTE: "FAIR" INDICATES FEW OR NO CLOUDS BELOW 12,000 FEET WITH NO
SIGNIFICANT WEATHER AND/OR OBSTRUCTION TO VISIBILITY.

MIZ047>049-052>055-059>063-066>070-074>076-081>083-280100-
SOUTHEAST LOWER MICHIGAN

CITY           SKY/WX    TMP DP  RH WIND       PRES   REMARKS
ADRIAN         CLOUDY    73  72  96 SE5       30.11R
6HR MIN TEMP:  69; 6HR MAX TEMP:  75; 6HR PCP:  0.17;

ALMA           PTCLDY    73  71  95 CALM      30.07S
6HR MIN TEMP:  69; 6HR MAX TEMP:  75;

ANN ARBOR      CLOUDY    72  71  97 SE3       30.10R
CARO           PTCLDY    71  69  93 S6        30.07S
DETROIT CITY   CLOUDY    73  73 100 SE8       30.09S
6HR MIN TEMP:  71; 6HR MAX TEMP:  83; 6HR PCP:  1.01;

DETROIT        CLOUDY    73  71  93 VRB3      30.10R
6HR MIN TEMP:  71; 6HR MAX TEMP:  83; 6HR PCP:  1.29;

FLINT          CLOUDY    75  69  81 S6        30.08S
6HR MIN TEMP:  71; 6HR MAX TEMP:  77; 6HR PCP:  0.05;

GROSSE ILE     CLOUDY    72  70  93 CALM      30.09R
6HR MIN TEMP:  70; 6HR MAX TEMP:  82; 6HR PCP:  1.07;

HILLSDALE      CLEAR     74  71  88 SE3       30.10S
6HR MIN TEMP:  51; 6HR MAX TEMP:  84;

HOWELL         PTCLDY    72  70  92 S6        30.10R
6HR MIN TEMP:  68; 6HR MAX TEMP:  74;


CITY           SKY/WX    TMP DP  RH WIND       PRES   REMARKS
JACKSON        PTCLDY    75  72  90 S7        30.09R
6HR MIN TEMP:  68; 6HR MAX TEMP:  76; 6HR PCP:  0.03;

LAMBERTVILLE   CLOUDY    74  71  89 SE5       30.11R
6HR MIN TEMP:  71; 6HR MAX TEMP:  84;

LANSING        PTCLDY    75  69  81 S8        30.08S
6HR MIN TEMP:  66; 6HR MAX TEMP:  78; 6HR PCP:  0.05;

LAPEER         FAIR      70  68  94 S5        30.08S
6HR MIN TEMP:  70; 6HR MAX TEMP:  72; 6HR PCP:  0.25;

MASON          PTCLDY    73  70  88 S10       30.08S
MONROE         CLOUDY    74  72  95 SE6       30.10R
6HR MIN TEMP:  71; 6HR MAX TEMP:  80; 6HR PCP:  1.36;

PONTIAC        CLOUDY    72  69  90 SE9       30.09S
6HR MIN TEMP:  70; 6HR MAX TEMP:  77; 6HR PCP:  0.78;

PORT HURON     CLOUDY    70  68  94 SE7       30.09S
TRI CITIES     CLOUDY    74  71  91 S3        30.07S
6HR MIN TEMP:  69; 6HR MAX TEMP:  75; 6HR PCP:  0.01;

MIDLAND        CLOUDY    73  70  89 S5        30.06S
6HR MIN TEMP:  70; 6HR MAX TEMP:  75;

TROY           CLOUDY    73  70  91 CALM      30.11S
SAGINAW HB     MOCLDY    73  70  88 S5        30.06S
$$
MIZ043>046-050>051-056>058-064>065-071>073-077>080-280100-
SOUTHWEST LOWER MICHIGAN

CITY           SKY/WX    TMP DP  RH WIND       PRES   REMARKS
BATTLE CREEK   CLEAR     75  73  93 S7        30.08S
6HR MIN TEMP:  66; 6HR MAX TEMP:  78; 6HR PCP: TRACE;

BENTON HARBOR  PTCLDY    81  71  71 S5        30.04R
6HR MIN TEMP:  79; 6HR MAX TEMP:  84;

BIG RAPIDS     CLOUDY    74  69  85 SE6       30.06R
6HR MIN TEMP:  71; 6HR MAX TEMP:  76;

COLDWATER      CLEAR     77  72  84 S3        30.09R
6HR MIN TEMP:  70; 6HR MAX TEMP:  79;

FREMONT        FAIR      74  70  89 CALM      30.05R
HOLLAND        PTCLDY    78  70  76 S5        30.05S
6HR MIN TEMP:  75; 6HR MAX TEMP:  82;

GRAND RAPIDS   MOCLDY    77  69  76 S5        30.06S
6HR MIN TEMP:  71; 6HR MAX TEMP:  79;

IONIA          FAIR      73  69  87 SE5       30.06S
6HR MIN TEMP:  66; 6HR MAX TEMP:  75;

KALAMAZOO      CLEAR     79  70  74 S5        30.06S
6HR MIN TEMP:  70; 6HR MAX TEMP:  82;

LUDINGTON      CLOUDY    74  70  88 S8        30.03R
6HR MIN TEMP:  69; 6HR MAX TEMP:  74;

MARSHALL       PTCLDY    77  73  88 S5        30.07S
MOUNT PLEASANT PTCLDY    73  70  89 CALM      30.06S
6HR MIN TEMP:  70; 6HR MAX TEMP:  75;

MUSKEGON       MOCLDY    77  71  82 S6        30.04S
6HR MIN TEMP:  74; 6HR MAX TEMP:  80;

SOUTH HAVEN    PTCLDY    80  74  80 CALM      30.04R
$$
MIZ016>042-280100-
NORTHERN LOWER MICHIGAN

CITY           SKY/WX    TMP DP  RH WIND       PRES   REMARKS
ALPENA         CLOUDY    70  67  90 SE6       30.08F
6HR MIN TEMP:  67; 6HR MAX TEMP:  71; 6HR PCP:  0.02;

BEAVER ISLAND  HVY RAIN  64  64 100 NE5       30.04F
6HR MIN TEMP:  64; 6HR MAX TEMP:  65;

BELLAIRE       CLOUDY    72  66  80 CALM      30.04S
6HR MIN TEMP:  65; 6HR MAX TEMP:  73;

CADILLAC       CLOUDY    71  66  85 SE6       30.06S
CHARLEVOIX     MOCLDY    71  67  87 SE6       30.05F
FRANKFORT      RAIN      71  68  92 CALM      30.03R
GAYLORD        CLOUDY    68  64  87 S7        30.08F
6HR MIN TEMP:  65; 6HR MAX TEMP:  69; 6HR PCP: TRACE;

GRAYLING       DRIZZLE   68  67  96 SE3       30.09S
HARBOR SPRINGS CLOUDY    67  65  94 E6        30.04F
HOUGHTON LAKE  CLOUDY    69  66  90 SE5       30.08F
6HR MIN TEMP:  66; 6HR MAX TEMP:  71; 6HR PCP: TRACE;

MANISTEE       CLOUDY    71  70  96 CALM      30.02S
OSCODA         CLOUDY    71  67  88 E3        30.07F
6HR MIN TEMP:  67; 6HR MAX TEMP:  71;

PELLSTON       CLOUDY    67  63  87 SE8       30.06S
6HR MIN TEMP:  65; 6HR MAX TEMP:  68; 6HR PCP:  0.02;

ROGERS CITY    CLOUDY    69  65  86 SE5       30.08F
TRAVERSE CITY  CLOUDY    74  67  78 CALM      30.02S
6HR MIN TEMP:  68; 6HR MAX TEMP:  75;

$$
MIZ007>008-015-280100-
EASTERN UPPER MICHIGAN

CITY           SKY/WX    TMP DP  RH WIND       PRES   REMARKS
KINROSS        RAIN      63  62  97 E9        30.08F FOG
6HR MIN TEMP:  62; 6HR MAX TEMP:  65; 6HR PCP:  0.33;

MACKINAC ISLAN LGT RAIN  65  65 100 SE8       30.05F
6HR MIN TEMP:  63; 6HR MAX TEMP:  65; 6HR PCP:  0.15;

NEWBERRY       CLOUDY    62  61  97 E6        30.06F FOG
6HR MIN TEMP:  62; 6HR MAX TEMP:  64; 6HR PCP:  0.07;

S. S. MARIE    LGT RAIN  63  62  97 E6        30.08F FOG
6HR MIN TEMP:  63; 6HR MAX TEMP:  66; 6HR PCP:  0.25;

$$
MIZ004>006-011>014-085-280100-
CENTRAL UPPER MICHIGAN

CITY           SKY/WX    TMP DP  RH WIND       PRES   REMARKS
MANISTIQUE     CLOUDY    64  61  92 E3        30.05S
6HR MIN TEMP:  63; 6HR MAX TEMP:  66; 6HR PCP:  0.10;

ESCANABA       CLOUDY    65  62  90 CALM      30.05S
6HR MIN TEMP:  64; 6HR MAX TEMP:  68;

MENOMINEE      CLOUDY   N/A N/A N/A CALM      30.06R
SAWYER-GWINN   CLOUDY    64  59  82 SE6       30.06S
$$
MIZ001>003-009>011-084-280100-
WESTERN UPPER MICHIGAN

CITY           SKY/WX    TMP DP  RH WIND       PRES   REMARKS
IRON MOUNTAIN  CLOUDY    65  58  78 S3        30.05S
6HR MIN TEMP:  63; 6HR MAX TEMP:  70; 6HR PCP: TRACE;

HOUGHTON       CLOUDY    63  60  90 E7        30.04S
6HR MIN TEMP:  63; 6HR MAX TEMP:  70;

IRONWOOD       LGT RAIN  63  62  97 N3        30.04R
6HR MIN TEMP:  63; 6HR MAX TEMP:  69; 6HR PCP:  0.05;

$$

ABBREVIATIONS USED IN REMARKS
   TC - TEMPERATURE IN CELSIUS
  WCI - WIND CHILL INDEX
   HX - HEAT INDEX
  VSB - VISIBILITY





USA.gov is the U.S. government's official web portal to all federal, state and local government web resources and services.